Weather History for Tallahassee, FL

Change the Weather History Date:

Tuesday, December 25, 2012

  Actual Average Record
Temperature  
Mean Temperature 61 °F 52 °F  
Max Temperature 69 °F 64 °F 80 °F (1974)
Min Temperature 53 °F 40 °F 14 °F (1983)
Degree Days  
Heating Degree Days 4    
Month to date heating degree days 169  
Since 1 July heating degree days 427  
Cooling Degree Days 0    
Month to date cooling degree days 18  
Year to date cooling degree days 2976  
Growing Degree Days 11 (Base 50)    
Moisture  
Dew Point 59 °F    
Average Humidity 87    
Maximum Humidity 100    
Minimum Humidity 73    
Precipitation  
Precipitation 0.36 in 0.13 in 3.72 in (2006)
Month to date precipitation 2.66 3.17  
Year to date precipitation 58.70 58.50  
Sea Level Pressure  
Sea Level Pressure 29.91 in    
Wind  
Wind Speed 7 mph (SE)    
Max Wind Speed 21 mph    
Max Gust Speed 28 mph    
Visibility 5 miles    
Events Fog , Rain , Thunderstorm    
T = Trace of Precipitation, MM = Missing Value Source: NWS Daily Summary

Daily Weather History Graph

Daily Weather History Graph

Search for Another Location

Airport:

Trip Planner

Search our weather history database for the weather conditions in past years. The results will help you decide how hot, cold, wet, or windy it might be!

Date:

Astronomy

Dec. 25, 2012 Rise Set
Actual Time 7:32 AM EST 5:43 PM EST
Civil Twilight 7:05 AM EST 6:10 PM EST
Nautical Twilight 6:35 AM EST 6:40 PM EST
Astronomical Twilight 6:06 AM EST 7:09 PM EST
Moon 3:48 PM EST (12/25) 5:06 AM EST (12/25)
Length of Visible Light 11h 04m
Length of Day
10h 11m
Waxing Gibbous, 93% of the Moon is Illuminated
Dec 25
Waxing Gibbous
Dec 28
Full
Jan 4
Last Quarter
Jan 11
New
Jan 18
First Quarter

Hourly Weather History & Observations

Time (EST) Temp. Dew Point Humidity Pressure Visibility Wind Dir Wind Speed Gust Speed Precip Events Conditions
12:53 AM 54.0 °F 52.0 °F 93% 29.95 in 0.2 mi Calm Calm - N/A Fog Fog
1:53 AM 53.1 °F 52.0 °F 96% 29.94 in 0.5 mi Calm Calm - N/A Fog Fog
2:53 AM 53.1 °F 51.1 °F 93% 29.94 in 0.5 mi Calm Calm - N/A Fog Fog
3:08 AM 53.6 °F 51.8 °F 94% 29.95 in 1.0 mi Calm Calm - N/A   Mist
3:16 AM 53.6 °F 51.8 °F 94% 29.95 in 0.5 mi Calm Calm - N/A Fog Fog
3:53 AM 54.0 °F 53.1 °F 97% 29.94 in 0.5 mi Calm Calm - N/A Fog Fog
4:21 AM 55.4 °F 53.6 °F 94% 29.94 in 0.2 mi Calm Calm - N/A Fog Fog
4:53 AM 55.9 °F 54.0 °F 93% 29.94 in 0.2 mi Calm Calm - N/A Fog Fog
5:53 AM 55.9 °F 55.0 °F 97% 29.95 in 0.2 mi Calm Calm - N/A Fog Fog
6:08 AM 57.2 °F 55.4 °F 94% 29.95 in 0.8 mi Calm Calm - 0.01 in   Mist
6:23 AM 57.2 °F 55.4 °F 94% 29.95 in 1.0 mi Calm Calm - 0.01 in Rain Light Rain
6:30 AM 57.2 °F 55.4 °F 94% 29.95 in 0.8 mi Calm Calm - 0.01 in   Mist
6:53 AM 57.9 °F 55.9 °F 93% 29.96 in 0.8 mi Calm Calm - 0.01 in   Overcast
7:05 AM 57.2 °F 55.4 °F 94% 29.96 in 0.8 mi Calm Calm - N/A   Overcast
7:53 AM 59.0 °F 57.0 °F 93% 29.95 in 0.8 mi Calm Calm - N/A   Overcast
8:50 AM 60.8 °F 59.0 °F 94% 29.95 in 0.2 mi East 3.5 mph - N/A Fog Fog
8:53 AM 61.0 °F 59.0 °F 93% 29.95 in 0.2 mi East 3.5 mph - N/A Fog Fog
9:39 AM 62.6 °F 60.8 °F 94% 29.95 in 1.0 mi East 6.9 mph - N/A   Mist
9:43 AM 62.6 °F 60.8 °F 94% 29.95 in 3.0 mi ESE 4.6 mph - N/A   Overcast
9:53 AM 62.1 °F 61.0 °F 96% 29.95 in 10.0 mi ESE 3.5 mph - N/A   Overcast
10:01 AM 62.6 °F 60.8 °F 94% 29.95 in 10.0 mi ESE 4.6 mph - N/A   Overcast
10:20 AM 62.6 °F 60.8 °F 94% 29.95 in 10.0 mi ESE 6.9 mph - N/A   Overcast
10:53 AM 64.0 °F 62.1 °F 93% 29.95 in 10.0 mi SE 5.8 mph - N/A   Overcast
11:33 AM 66.2 °F 64.4 °F 94% 29.95 in 10.0 mi SSE 6.9 mph - N/A   Overcast
11:53 AM 66.0 °F 64.0 °F 93% 29.95 in 10.0 mi SSE 8.1 mph - N/A   Overcast
12:49 PM 69.8 °F 64.4 °F 83% 29.92 in 10.0 mi SSE 5.8 mph - N/A   Overcast
12:53 PM 69.1 °F 64.0 °F 84% 29.91 in 10.0 mi SSE 6.9 mph - N/A   Overcast
1:29 PM 68.0 °F 64.4 °F 88% 29.88 in 2.0 mi SSE 11.5 mph 19.6 mph 0.02 in Rain Rain
1:32 PM 66.2 °F 64.4 °F 94% 29.88 in 1.8 mi SSE 13.8 mph - 0.07 in Rain Heavy Rain
1:40 PM 66.2 °F 64.4 °F 94% 29.88 in 1.0 mi SSE 11.5 mph - 0.27 in Rain , Thunderstorm Thunderstorms and Rain
1:45 PM 66.2 °F 64.4 °F 94% 29.88 in 4.0 mi SSE 10.4 mph 18.4 mph 0.27 in Rain , Thunderstorm Light Thunderstorms and Rain
1:49 PM 66.2 °F 64.4 °F 94% 29.88 in 10.0 mi SSE 12.7 mph 20.7 mph 0.27 in Rain , Thunderstorm Light Thunderstorms and Rain
1:53 PM 66.9 °F 64.0 °F 90% 29.87 in 10.0 mi SSE 12.7 mph 21.9 mph 0.27 in Rain , Thunderstorm Light Thunderstorms and Rain
2:03 PM 66.2 °F 64.4 °F 94% 29.87 in 10.0 mi SSE 12.7 mph 19.6 mph 0.00 in Rain Light Rain
2:53 PM 66.0 °F 63.0 °F 90% 29.86 in 6.0 mi SSE 9.2 mph 23.0 mph 0.06 in Rain Light Rain
3:32 PM 66.2 °F 62.6 °F 88% 29.87 in 10.0 mi SSE 10.4 mph - 0.02 in   Overcast
3:53 PM 66.9 °F 62.1 °F 84% 29.88 in 10.0 mi South 6.9 mph - 0.02 in   Overcast
4:53 PM 66.9 °F 60.1 °F 79% 29.88 in 10.0 mi South 10.4 mph - N/A   Scattered Clouds
5:53 PM 64.9 °F 59.0 °F 81% 29.84 in 10.0 mi SE 10.4 mph - N/A   Scattered Clouds
6:53 PM 64.9 °F 60.1 °F 84% 29.83 in 10.0 mi SSE 10.4 mph - N/A   Clear
7:53 PM 64.0 °F 60.1 °F 87% 29.85 in 10.0 mi SSE 5.8 mph - N/A   Clear
8:53 PM 64.9 °F 60.1 °F 84% 29.84 in 10.0 mi SSE 9.2 mph - N/A   Overcast
9:53 PM 66.0 °F 57.9 °F 75% 29.80 in 10.0 mi SSE 15.0 mph 23.0 mph N/A   Mostly Cloudy
10:53 PM 66.9 °F 57.0 °F 70% 29.80 in 10.0 mi SSE 20.7 mph 25.3 mph N/A   Mostly Cloudy
11:53 PM 66.9 °F 57.9 °F 73% 29.77 in 10.0 mi SSE 17.3 mph 26.5 mph N/A   Overcast